RYR46SX LIMC-LEPA

Flight info

Callsign RYR46SX
Flight time 1h 0m
Altitude 35000
Route NEDED DCT GEKBA DCT VAMTU DCT KOLON DCT SOKDI DCT GANGU DCT PADKO DCT VATIR DCT PIVUS DCT BODEQ N852 VERSO DCT LUNIK
Aircraft B738/M-SDE2E3FGHIRWXY/LB1

Departure

Time 2026-05-05 17:16
Airport Milan Malpensa International Airport (LIMC)

Arrival

Time 2026-05-05 18:17
Airport Palma de Mallorca Airport (LEPA)
Time Latitude Longitude Altitude Speed Heading
2026-05-05 16:23 45.62850 8.71879 740 ft 0 kts 78°
2026-05-05 17:04 45.62850 8.71880 740 ft 0 kts 78°
2026-05-05 17:04 45.62852 8.71894 740 ft 3 kts 78°
2026-05-05 17:04 45.62858 8.71936 739 ft 6 kts 78°
2026-05-05 17:05 45.62830 8.71979 740 ft 8 kts 164°
2026-05-05 17:05 45.62758 8.72001 740 ft 13 kts 169°
2026-05-05 17:05 45.62660 8.72028 740 ft 16 kts 169°
2026-05-05 17:05 45.62546 8.72060 739 ft 18 kts 169°
2026-05-05 17:06 45.62419 8.72094 740 ft 20 kts 169°
2026-05-05 17:06 45.62278 8.72134 740 ft 21 kts 169°
2026-05-05 17:06 45.62125 8.72176 740 ft 23 kts 169°
2026-05-05 17:06 45.61963 8.72221 741 ft 24 kts 169°
2026-05-05 17:07 45.61804 8.72264 741 ft 23 kts 169°
2026-05-05 17:07 45.61661 8.72303 741 ft 22 kts 169°
2026-05-05 17:07 45.61512 8.72344 741 ft 19 kts 169°
2026-05-05 17:07 45.61424 8.72364 741 ft 10 kts 185°
2026-05-05 17:08 45.61389 8.72292 741 ft 10 kts 258°
2026-05-05 17:08 45.61342 8.72194 741 ft 16 kts 184°
2026-05-05 17:08 45.61201 8.72231 741 ft 23 kts 169°
2026-05-05 17:08 45.61034 8.72277 740 ft 24 kts 169°
2026-05-05 17:09 45.60874 8.72322 741 ft 23 kts 169°
2026-05-05 17:09 45.60732 8.72360 740 ft 18 kts 169°
2026-05-05 17:09 45.60650 8.72433 741 ft 14 kts 117°
2026-05-05 17:09 45.60633 8.72568 741 ft 14 kts 96°
2026-05-05 17:10 45.60623 8.72699 741 ft 13 kts 96°
2026-05-05 17:10 45.60614 8.72828 741 ft 14 kts 96°
2026-05-05 17:10 45.60602 8.72988 741 ft 18 kts 96°
2026-05-05 17:10 45.60591 8.73156 741 ft 16 kts 90°
2026-05-05 17:11 45.60645 8.73279 741 ft 15 kts 27°
2026-05-05 17:11 45.60736 8.73333 741 ft 14 kts 22°
2026-05-05 17:11 45.60827 8.73386 741 ft 14 kts 22°
2026-05-05 17:11 45.60918 8.73407 739 ft 13 kts 352°
2026-05-05 17:12 45.61006 8.73381 741 ft 13 kts 348°
2026-05-05 17:12 45.61092 8.73357 741 ft 12 kts 349°
2026-05-05 17:12 45.61180 8.73332 741 ft 15 kts 349°
2026-05-05 17:12 45.61274 8.73307 741 ft 18 kts 349°
2026-05-05 17:13 45.61406 8.73270 741 ft 19 kts 349°
2026-05-05 17:13 45.61531 8.73236 740 ft 12 kts 349°
2026-05-05 17:13 45.61596 8.73228 741 ft 9 kts 12°
2026-05-05 17:13 45.61623 8.73298 741 ft 9 kts 81°
2026-05-05 17:14 45.61634 8.73380 739 ft 8 kts 79°
2026-05-05 17:14 45.61623 8.73458 741 ft 8 kts 122°
2026-05-05 17:14 45.61593 8.73526 740 ft 8 kts 122°
2026-05-05 17:14 45.61584 8.73599 741 ft 8 kts 82°
2026-05-05 17:15 45.61593 8.73673 741 ft 7 kts 78°
2026-05-05 17:15 45.61617 8.73733 740 ft 7 kts 27°
2026-05-05 17:15 45.61680 8.73723 741 ft 15 kts 349°
2026-05-05 17:15 45.61996 8.73637 739 ft 78 kts 349°
2026-05-05 17:16 45.62714 8.73438 738 ft 131 kts 349°
2026-05-05 17:16 45.63572 8.73185 787 ft 164 kts 347°
2026-05-05 17:16 45.64700 8.72853 1339 ft 168 kts 349°
2026-05-05 17:16 45.65840 8.72727 1985 ft 169 kts 359°
2026-05-05 17:17 45.67031 8.72714 2522 ft 173 kts 358°
2026-05-05 17:17 45.68230 8.72685 3078 ft 175 kts 358°
2026-05-05 17:17 45.69024 8.72665 3426 ft 178 kts 359°
2026-05-05 17:17 45.70270 8.72634 3974 ft 181 kts 359°
2026-05-05 17:18 45.71557 8.72456 4372 ft 195 kts 338°
2026-05-05 17:18 45.72568 8.71215 4554 ft 211 kts 296°
2026-05-05 17:18 45.72782 8.69356 4725 ft 221 kts 259°
2026-05-05 17:18 45.72438 8.67165 5134 ft 229 kts 252°
2026-05-05 17:19 45.71562 8.65216 5370 ft 247 kts 215°
2026-05-05 17:19 45.70202 8.64215 5717 ft 260 kts 200°
2026-05-05 17:19 45.68471 8.63385 6363 ft 270 kts 196°
2026-05-05 17:19 45.67177 8.62817 6865 ft 272 kts 196°
2026-05-05 17:20 45.65397 8.62029 7667 ft 270 kts 197°
2026-05-05 17:20 45.63603 8.61210 8493 ft 269 kts 197°
2026-05-05 17:20 45.62416 8.60655 9080 ft 271 kts 198°
2026-05-05 17:20 45.59761 8.59380 10444 ft 273 kts 198°
2026-05-05 17:21 45.55906 8.57478 11141 ft 314 kts 199°
2026-05-05 17:21 45.51692 8.55361 12606 ft 329 kts 201°
2026-05-05 17:21 45.47368 8.53171 14212 ft 337 kts 201°
2026-05-05 17:22 45.38338 8.48587 17059 ft 350 kts 201°
2026-05-05 17:22 45.33706 8.46240 18398 ft 357 kts 201°
2026-05-05 17:22 45.29018 8.43868 19583 ft 363 kts 201°
2026-05-05 17:22 45.24213 8.41442 20738 ft 369 kts 201°
2026-05-05 17:23 45.19304 8.38967 21878 ft 375 kts 201°
2026-05-05 17:23 45.14331 8.36464 23026 ft 382 kts 201°
2026-05-05 17:23 45.09285 8.33931 24034 ft 387 kts 201°
2026-05-05 17:23 45.04184 8.31374 24941 ft 391 kts 201°
2026-05-05 17:24 44.99065 8.28812 25811 ft 395 kts 201°
2026-05-05 17:24 44.88950 8.23764 27452 ft 402 kts 202°
2026-05-05 17:24 44.78300 8.18470 29045 ft 408 kts 202°
2026-05-05 17:24 44.67692 8.12916 30797 ft 401 kts 211°
2026-05-05 17:25 44.58432 8.04797 32762 ft 385 kts 216°
2026-05-05 17:25 44.52441 7.99509 33809 ft 382 kts 215°
2026-05-05 17:25 44.40194 7.89064 35139 ft 387 kts 215°
2026-05-05 17:25 44.30954 7.81216 35847 ft 393 kts 214°
2026-05-05 17:26 44.23397 7.73735 36558 ft 391 kts 225°
2026-05-05 17:26 44.21442 7.71166 36716 ft 392 kts 225°
2026-05-05 17:26 44.19431 7.68559 36936 ft 392 kts 224°
2026-05-05 17:27 44.13314 7.60652 36938 ft 399 kts 230°
2026-05-05 17:27 44.09732 7.54885 36937 ft 386 kts 231°
2026-05-05 17:28 44.06226 7.49228 36941 ft 386 kts 231°
2026-05-05 17:28 44.01998 7.42460 36955 ft 384 kts 230°
2026-05-05 17:29 43.95051 7.31406 36957 ft 382 kts 230°
2026-05-05 17:29 43.88063 7.20330 36968 ft 380 kts 230°
2026-05-05 17:30 43.78963 7.05969 36972 ft 394 kts 230°
2026-05-05 17:30 43.64278 6.82965 36913 ft 395 kts 230°
2026-05-05 17:31 43.51933 6.59088 36850 ft 374 kts 230°
2026-05-05 17:31 43.38901 6.37087 36953 ft 377 kts 233°
2026-05-05 17:32 43.25588 6.14027 36978 ft 395 kts 232°
2026-05-05 17:32 43.11798 5.90408 36923 ft 391 kts 232°
2026-05-05 17:33 43.03423 5.76155 36917 ft 380 kts 232°
2026-05-05 17:33 43.00122 5.70556 36918 ft 378 kts 232°
2026-05-05 17:34 42.96831 5.64984 36908 ft 377 kts 232°
2026-05-05 17:34 42.93531 5.59406 36916 ft 377 kts 232°
2026-05-05 17:35 42.90241 5.53857 36916 ft 378 kts 232°
2026-05-05 17:35 42.88579 5.51057 37033 ft 380 kts 231°
2026-05-05 17:35 42.86909 5.48245 36975 ft 382 kts 231°
2026-05-05 17:36 42.83561 5.42619 36914 ft 384 kts 231°
2026-05-05 17:36 42.80187 5.36959 36902 ft 385 kts 231°
2026-05-05 17:37 42.76826 5.31333 36903 ft 384 kts 231°
2026-05-05 17:37 42.73447 5.25689 36900 ft 383 kts 231°
2026-05-05 17:38 42.70087 5.20084 36899 ft 381 kts 231°
2026-05-05 17:38 42.66750 5.14530 36904 ft 380 kts 231°
2026-05-05 17:39 42.63416 5.08990 36902 ft 379 kts 231°
2026-05-05 17:39 42.60078 5.03455 36896 ft 377 kts 231°
2026-05-05 17:40 42.56748 4.97943 36897 ft 376 kts 231°
2026-05-05 17:40 42.53441 4.92479 36899 ft 375 kts 231°
2026-05-05 17:41 42.50113 4.86990 36896 ft 375 kts 231°
2026-05-05 17:41 42.46807 4.81548 36894 ft 375 kts 231°
2026-05-05 17:42 42.43479 4.76080 36897 ft 376 kts 231°
2026-05-05 17:42 42.40162 4.70640 36896 ft 376 kts 231°
2026-05-05 17:43 42.36820 4.65168 36898 ft 377 kts 231°
2026-05-05 17:43 42.33460 4.59679 36889 ft 378 kts 231°
2026-05-05 17:44 42.30118 4.54226 36892 ft 379 kts 231°
2026-05-05 17:44 42.26732 4.48714 36893 ft 379 kts 231°
2026-05-05 17:45 42.23365 4.43243 36889 ft 380 kts 231°
2026-05-05 17:45 42.19998 4.37781 36887 ft 380 kts 231°
2026-05-05 17:46 42.16607 4.32290 36889 ft 380 kts 231°
2026-05-05 17:46 42.13235 4.26841 36888 ft 379 kts 231°
2026-05-05 17:47 42.09841 4.21365 36889 ft 379 kts 231°
2026-05-05 17:47 42.04948 4.13489 36893 ft 379 kts 231°
2026-05-05 17:48 41.98176 4.02619 36885 ft 378 kts 231°
2026-05-05 17:48 41.90294 3.93397 36888 ft 385 kts 208°
2026-05-05 17:48 41.85096 3.91573 36896 ft 394 kts 196°
2026-05-05 17:49 41.79677 3.90394 36867 ft 392 kts 196°
2026-05-05 17:49 41.69075 3.87991 36330 ft 381 kts 197°
2026-05-05 17:49 41.63936 3.86810 35608 ft 370 kts 197°
2026-05-05 17:50 41.58909 3.85656 34871 ft 362 kts 197°
2026-05-05 17:50 41.53990 3.84529 34140 ft 354 kts 197°
2026-05-05 17:50 41.49200 3.83433 33409 ft 345 kts 197°
2026-05-05 17:50 41.44559 3.82369 32595 ft 338 kts 197°
2026-05-05 17:51 41.39964 3.81318 31852 ft 331 kts 198°
2026-05-05 17:51 41.35965 3.80405 31250 ft 325 kts 198°
2026-05-05 17:51 41.31547 3.79396 30554 ft 319 kts 198°
2026-05-05 17:51 41.27192 3.78402 29858 ft 314 kts 198°
2026-05-05 17:52 41.22907 3.77426 29095 ft 308 kts 198°
2026-05-05 17:52 41.18777 3.76489 28395 ft 301 kts 198°
2026-05-05 17:52 41.14724 3.75417 27715 ft 288 kts 206°
2026-05-05 17:52 41.11020 3.73529 27117 ft 281 kts 208°
2026-05-05 17:53 41.07445 3.71669 26498 ft 279 kts 208°
2026-05-05 17:53 41.03772 3.69759 25885 ft 291 kts 208°
2026-05-05 17:53 40.99949 3.67785 25200 ft 294 kts 208°
2026-05-05 17:53 40.96156 3.65841 24498 ft 291 kts 208°
2026-05-05 17:54 40.92400 3.63917 23832 ft 288 kts 208°
2026-05-05 17:54 40.88656 3.61998 23108 ft 286 kts 208°
2026-05-05 17:54 40.84974 3.60111 22379 ft 283 kts 208°
2026-05-05 17:54 40.81325 3.58245 21712 ft 278 kts 208°
2026-05-05 17:55 40.77749 3.56418 21119 ft 273 kts 208°
2026-05-05 17:55 40.74260 3.54636 20551 ft 271 kts 207°
2026-05-05 17:55 40.70713 3.52828 20014 ft 271 kts 207°
2026-05-05 17:55 40.67185 3.51032 19437 ft 270 kts 207°
2026-05-05 17:56 40.63755 3.49289 18948 ft 268 kts 207°
2026-05-05 17:56 40.60264 3.47512 18445 ft 269 kts 206°
2026-05-05 17:56 40.57539 3.46126 18025 ft 276 kts 206°
2026-05-05 17:56 40.55708 3.45194 17702 ft 284 kts 206°
2026-05-05 17:57 40.53887 3.44270 17398 ft 284 kts 206°
2026-05-05 17:57 40.52053 3.43342 17102 ft 280 kts 206°
2026-05-05 17:57 40.50239 3.42424 16814 ft 277 kts 206°
2026-05-05 17:57 40.48450 3.41519 16531 ft 274 kts 205°
2026-05-05 17:58 40.46675 3.40621 16258 ft 271 kts 205°
2026-05-05 17:58 40.44929 3.39741 15988 ft 268 kts 204°
2026-05-05 17:58 40.43112 3.39268 15745 ft 272 kts 187°
2026-05-05 17:58 40.41208 3.39320 15554 ft 276 kts 184°
2026-05-05 17:59 40.39255 3.39438 15342 ft 284 kts 183°
2026-05-05 17:59 40.37251 3.39571 15109 ft 288 kts 183°
2026-05-05 17:59 40.35251 3.39704 14866 ft 288 kts 183°
2026-05-05 17:59 40.33248 3.39832 14648 ft 287 kts 183°
2026-05-05 18:00 40.31277 3.39955 14462 ft 285 kts 183°
2026-05-05 18:00 40.29293 3.40074 14245 ft 285 kts 183°
2026-05-05 18:00 40.27313 3.40190 14028 ft 284 kts 183°
2026-05-05 18:00 40.25327 3.40305 13813 ft 284 kts 183°
2026-05-05 18:01 40.23376 3.40417 13576 ft 284 kts 183°
2026-05-05 18:01 40.21394 3.40530 13317 ft 283 kts 183°
2026-05-05 18:01 40.19419 3.40642 13080 ft 283 kts 183°
2026-05-05 18:01 40.17476 3.40752 12859 ft 283 kts 183°
2026-05-05 18:02 40.15503 3.40864 12631 ft 282 kts 182°
2026-05-05 18:02 40.13558 3.40975 12410 ft 278 kts 182°
2026-05-05 18:02 40.11631 3.41085 12184 ft 275 kts 182°
2026-05-05 18:02 40.09729 3.41193 11968 ft 274 kts 182°
2026-05-05 18:03 40.07823 3.41299 11757 ft 273 kts 182°
2026-05-05 18:03 40.05942 3.41405 11540 ft 273 kts 182°
2026-05-05 18:03 40.04034 3.41512 11327 ft 274 kts 182°
2026-05-05 18:03 40.02128 3.41620 11107 ft 274 kts 182°
2026-05-05 18:04 40.00221 3.41727 10884 ft 274 kts 182°
2026-05-05 18:04 39.99040 3.41793 10756 ft 274 kts 182°
2026-05-05 18:04 39.96502 3.41936 10460 ft 275 kts 182°
2026-05-05 18:04 39.95199 3.42009 10316 ft 276 kts 182°
2026-05-05 18:05 39.93310 3.42115 10100 ft 276 kts 182°
2026-05-05 18:05 39.91378 3.42224 9876 ft 277 kts 181°
2026-05-05 18:05 39.89440 3.42332 9602 ft 278 kts 182°
2026-05-05 18:05 39.87610 3.41869 9349 ft 265 kts 212°
2026-05-05 18:06 39.86226 3.40404 9101 ft 258 kts 230°
2026-05-05 18:06 39.85493 3.39128 8865 ft 258 kts 237°
2026-05-05 18:06 39.84226 3.36519 8439 ft 257 kts 239°
2026-05-05 18:06 39.83294 3.34534 8140 ft 256 kts 239°
2026-05-05 18:07 39.82361 3.32557 7844 ft 255 kts 238°
2026-05-05 18:07 39.81428 3.30593 7548 ft 255 kts 238°
2026-05-05 18:07 39.80501 3.28656 7259 ft 254 kts 238°
2026-05-05 18:07 39.79563 3.26704 6957 ft 253 kts 238°
2026-05-05 18:08 39.78627 3.24763 6662 ft 253 kts 238°
2026-05-05 18:08 39.77699 3.22844 6357 ft 252 kts 239°
2026-05-05 18:08 39.76764 3.20913 6110 ft 250 kts 239°
2026-05-05 18:08 39.75840 3.19005 5885 ft 247 kts 239°
2026-05-05 18:09 39.74924 3.17119 5662 ft 245 kts 239°
2026-05-05 18:09 39.74026 3.15269 5402 ft 243 kts 239°
2026-05-05 18:09 39.73958 3.15128 5390 ft 243 kts 239°
2026-05-05 18:10 39.73334 3.13827 5243 ft 240 kts 240°
2026-05-05 18:10 39.72467 3.11981 5038 ft 237 kts 240°
2026-05-05 18:10 39.71610 3.10159 4839 ft 234 kts 240°
2026-05-05 18:10 39.70770 3.08385 4621 ft 231 kts 240°
2026-05-05 18:11 39.69928 3.06607 4416 ft 229 kts 240°
2026-05-05 18:11 39.69095 3.04849 4213 ft 227 kts 240°
2026-05-05 18:11 39.68276 3.03121 4008 ft 226 kts 241°
2026-05-05 18:11 39.67457 3.01393 3837 ft 222 kts 241°
2026-05-05 18:12 39.66653 2.99697 3643 ft 218 kts 240°
2026-05-05 18:12 39.65856 2.98024 3434 ft 216 kts 241°
2026-05-05 18:12 39.65078 2.96373 3220 ft 213 kts 241°
2026-05-05 18:12 39.64326 2.94765 3064 ft 206 kts 240°
2026-05-05 18:13 39.63580 2.93204 2865 ft 201 kts 240°
2026-05-05 18:13 39.62861 2.91681 2754 ft 197 kts 240°
2026-05-05 18:13 39.62154 2.90165 2495 ft 192 kts 241°
2026-05-05 18:13 39.61476 2.88702 2269 ft 192 kts 239°
2026-05-05 18:14 39.60760 2.87233 1970 ft 188 kts 239°
2026-05-05 18:14 39.60102 2.85844 1744 ft 177 kts 239°
2026-05-05 18:14 39.59472 2.84500 1499 ft 175 kts 239°
2026-05-05 18:14 39.58952 2.83396 1332 ft 166 kts 237°
2026-05-05 18:15 39.58363 2.82156 1136 ft 154 kts 238°
2026-05-05 18:15 39.57821 2.81005 946 ft 139 kts 237°
2026-05-05 18:15 39.57347 2.79999 706 ft 131 kts 237°
2026-05-05 18:15 39.56860 2.78966 563 ft 138 kts 236°
2026-05-05 18:16 39.56364 2.77907 370 ft 135 kts 237°
2026-05-05 18:16 39.55875 2.76875 217 ft 137 kts 237°
2026-05-05 18:16 39.55377 2.75810 45 ft 134 kts 237°
2026-05-05 18:16 39.54953 2.74918 37 ft 101 kts 238°
2026-05-05 18:17 39.54675 2.74331 37 ft 49 kts 238°
2026-05-05 18:17 39.54563 2.74034 35 ft 23 kts 258°
2026-05-05 18:17 39.54550 2.73842 37 ft 19 kts 270°
2026-05-05 18:17 39.54551 2.73774 37 ft 5 kts 271°
2026-05-05 18:18 39.54560 2.73734 37 ft 4 kts 301°
2026-05-05 18:18 39.54587 2.73722 37 ft 5 kts 12°
2026-05-05 18:18 39.54623 2.73778 37 ft 13 kts 58°
2026-05-05 18:18 39.54692 2.73924 37 ft 24 kts 58°
2026-05-05 18:19 39.54763 2.74073 37 ft 15 kts 58°
2026-05-05 18:19 39.54848 2.74108 36 ft 15 kts 334°
2026-05-05 18:19 39.54942 2.74034 37 ft 17 kts 328°
2026-05-05 18:19 39.55050 2.73947 37 ft 19 kts 329°
2026-05-05 18:20 39.55155 2.73867 37 ft 14 kts 329°
2026-05-05 18:20 39.55173 2.73770 37 ft 11 kts 265°
2026-05-05 18:20 39.55174 2.73686 37 ft 8 kts 250°
2026-05-05 18:20 39.55148 2.73628 37 ft 7 kts 239°
2026-05-05 18:21 39.55122 2.73572 37 ft 8 kts 239°
2026-05-05 18:21 39.55086 2.73496 36 ft 13 kts 238°
2026-05-05 18:21 39.55044 2.73405 36 ft 10 kts 243°
2026-05-05 18:21 39.55003 2.73384 37 ft 6 kts 163°
2026-05-05 18:22 39.54986 2.73390 36 ft 0 kts 164°